Temp_Advection
nan nan nan nan nan nan nan nan nan nan nan nan nan nan nan nan nan nan nan nan nan nan
nan 0 0 0 0 0 0 0 1 0 0 0 0 1 0 0 0 0 -0 -0 0 nan
nan 0 0 0 -0 0 0 0 0 1 0 0 0 0 0 0 0 0 0 1 0 nan
nan 0 0 0 0 0 0 0 0 0 0 0 0 0 1 0 0 0 0 0 -0 nan
nan 0 0 0 -0 0 0 0 0 0 0 0 0 1 1 1 0 1 1 0 0 nan
nan -0 0 0 -0 0 0 0 0 0 0 0 0 1 1 1 1 1 0 0 0 nan
nan 0 0 -0 -0 0 0 0 0 0 0 0 1 1 1 1 1 1 0 0 0 nan
nan -0 -1 -0 -0 0 0 0 0 0 1 1 1 0 1 1 1 1 0 0 0 nan
nan 0 -0 -1 -0 -0 -0 0 0 1 1 0 0 0 1 1 1 1 0 0 0 nan
nan -0 0 -0 -1 -1 -1 -0 0 1 0 0 1 0 0 1 1 1 0 0 0 nan
nan -0 -0 -0 -1 -1 -1 -1 0 1 1 1 0 1 0 0 1 1 1 0 0 nan
nan -0 -0 -0 -1 -0 -0 -0 -0 0 0 0 0 0 0 0 1 0 0 0 0 nan
nan -1 -1 -0 -0 -0 -0 -0 0 -0 -0 -0 -0 0 0 0 1 1 1 0 0 nan
nan nan nan nan nan nan nan nan nan nan nan nan nan nan nan nan nan nan nan nan nan nan
Wind_Speed
19 20 21 24 27 27 24 21 20 18 19 18 20 24 26 29 28 28 25 26 29 32
20 21 23 25 28 30 25 23 22 21 18 16 16 20 23 23 24 24 24 26 29 30
19 21 21 22 24 25 24 24 24 23 19 18 18 18 20 23 25 26 28 28 26 25
21 21 22 23 20 21 23 25 26 26 22 18 17 16 17 21 24 26 24 23 22 24
19 23 23 20 20 21 19 24 27 28 23 19 19 16 15 17 19 21 23 22 22 22
23 27 26 23 23 22 22 20 21 22 20 22 24 23 18 20 19 21 21 21 22 20
23 24 26 25 25 25 24 21 21 18 16 18 23 25 23 19 17 17 13 14 16 15
24 27 30 32 26 25 27 26 23 23 17 20 18 20 23 20 16 16 13 12 13 13
24 27 26 26 24 23 24 27 26 25 23 21 20 18 18 20 21 16 12 11 9 11
29 30 28 28 28 27 26 26 23 25 22 22 20 18 19 21 21 19 14 10 10 13
30 31 29 24 25 24 22 23 22 24 24 22 19 19 19 17 19 18 18 12 12 11
31 31 28 26 24 21 20 21 20 20 20 21 21 21 21 19 19 20 20 14 13 12
29 34 26 20 17 15 17 19 16 18 21 19 19 21 19 21 20 20 23 19 18 17
29 23 17 11 13 15 16 18 18 19 20 19 19 20 21 17 17 21 23 24 24 22
Wind_Direction
320 315 308 310 298 296 299 311 297 290 296 285 272 265 267 269 271 269 268 265 262 261
309 297 295 289 288 288 287 296 293 283 289 286 283 280 276 275 276 274 271 271 267 262
289 288 294 297 296 287 279 283 291 283 280 277 278 276 273 274 276 276 270 276 271 266
280 288 298 301 301 291 275 277 283 283 270 268 274 277 279 286 282 273 274 270 268 259
285 291 296 295 304 305 288 279 279 283 258 259 268 263 284 299 296 266 279 269 263 265
296 290 295 295 295 294 293 296 290 286 266 265 269 274 276 282 291 276 282 263 256 241
282 277 278 286 285 280 279 283 289 284 274 273 272 276 270 274 275 297 284 268 256 239
287 289 291 290 281 282 280 273 282 277 274 277 291 285 287 275 269 277 291 281 255 250
313 306 295 285 281 288 288 277 273 273 269 265 278 284 284 275 266 264 279 277 247 231
313 308 301 280 278 281 291 286 269 268 265 273 271 276 278 278 269 251 267 261 238 231
312 310 297 291 280 282 285 275 272 259 269 263 265 270 272 273 263 249 252 230 233 218
308 311 291 283 281 284 290 285 276 274 270 263 262 264 269 267 259 242 245 216 211 201
303 311 294 284 266 274 284 299 292 283 273 270 261 262 264 262 252 241 237 218 200 200
309 294 284 293 264 267 280 285 282 280 271 271 264 267 270 264 244 243 238 222 201 198
Height
1472 1472 1472 1470 1468 1467 1466 1463 1462 1461 1461 1458 1458 1459 1459 1459 1459 1458 1458 1458 1460 1457
1469 1468 1467 1466 1463 1460 1459 1458 1457 1455 1455 1455 1453 1452 1452 1452 1452 1451 1452 1452 1452 1452
1463 1462 1462 1460 1458 1455 1453 1452 1451 1451 1449 1449 1449 1446 1446 1445 1445 1444 1444 1444 1444 1443
1456 1455 1454 1453 1451 1450 1449 1447 1445 1445 1444 1442 1442 1441 1440 1440 1439 1437 1436 1436 1436 1437
1450 1449 1449 1448 1445 1443 1441 1440 1438 1436 1435 1435 1436 1437 1436 1435 1433 1431 1430 1430 1431 1432
1447 1445 1442 1441 1440 1438 1436 1434 1433 1430 1430 1430 1430 1431 1432 1430 1428 1426 1425 1424 1425 1426
1439 1437 1436 1433 1432 1431 1430 1428 1428 1426 1426 1426 1425 1424 1425 1424 1422 1420 1419 1419 1419 1420
1431 1429 1428 1425 1424 1424 1423 1422 1420 1420 1420 1420 1419 1419 1419 1418 1417 1416 1416 1415 1414 1417
1426 1423 1420 1418 1416 1416 1415 1414 1411 1413 1413 1412 1412 1413 1414 1413 1413 1413 1413 1413 1413 1415
1418 1415 1412 1409 1408 1407 1407 1406 1404 1405 1406 1406 1407 1408 1409 1408 1409 1409 1410 1411 1413 1415
1412 1409 1405 1401 1399 1399 1400 1398 1397 1398 1400 1400 1401 1402 1403 1404 1404 1406 1407 1409 1412 1414
1405 1401 1398 1396 1394 1393 1393 1393 1392 1392 1393 1393 1395 1396 1398 1398 1399 1402 1404 1406 1410 1414
1398 1395 1392 1390 1388 1387 1388 1387 1386 1386 1387 1388 1389 1390 1391 1392 1394 1398 1400 1402 1407 1412
1389 1388 1386 1385 1384 1383 1383 1382 1381 1380 1381 1382 1383 1384 1386 1387 1389 1393 1395 1398 1402 1408